Weather History for Kankakee, IL

Change the Weather History Date:

Wednesday, August 22, 2012

  Actual Average Record
Temperature  
Mean Temperature 68 °F -  
Max Temperature 85 °F 82 °F 93 °F (1983)
Min Temperature 50 °F 59 °F 48 °F (2004)
Cooling Degree Days 2    
Growing Degree Days 18 (Base 50)    
Moisture  
Dew Point 52 °F    
Average Humidity 60    
Maximum Humidity 95    
Minimum Humidity 30    
Precipitation  
Precipitation 0.00 in - - ()
Sea Level Pressure  
Sea Level Pressure 30.11 in    
Wind  
Wind Speed 2 mph (SSE)    
Max Wind Speed 9 mph    
Max Gust Speed -    
Visibility 10 miles    
Events Fog    
Averages and records for this station are not official NWS values.
T = Trace of Precipitation, MM = Missing Value Source: NWS Daily Summary

Daily Weather History Graph

Daily Weather History Graph

Search for Another Location

Airport:

Trip Planner

Search our weather history database for the weather conditions in past years. The results will help you decide how hot, cold, wet, or windy it might be!

Date:

Astronomy

Aug. 22, 2012 Rise Set
Actual Time 6:08 AM CDT 7:38 PM CDT
Civil Twilight 5:39 AM CDT 8:07 PM CDT
Nautical Twilight 5:04 AM CDT 8:42 PM CDT
Astronomical Twilight 4:27 AM CDT 9:19 PM CDT
Moon 11:51 AM CDT (8/22) 10:16 PM CDT (8/22)
Length of Visible Light 14h 28m
Length of Day
13h 30m
Waxing Crescent, 29% of the Moon is Illuminated
Aug 22
Waxing Crescent
Aug 24
First Quarter
Aug 31
Full
Sep 8
Last Quarter
Sep 15
New

Hourly Weather History & Observations

Time (CDT) Temp. Dew Point Humidity Pressure Visibility Wind Dir Wind Speed Gust Speed Precip Events Conditions
12:15 AM 56.1 °F 50.4 °F 81% 30.11 in 10.0 mi Calm Calm - N/A   Clear
12:35 AM 55.6 °F 50.5 °F 83% 30.11 in 10.0 mi Calm Calm - N/A   Clear
12:55 AM 55.2 °F 50.0 °F 83% 30.11 in 10.0 mi East 3.5 mph - N/A   Clear
1:15 AM 55.9 °F 50.5 °F 82% 30.11 in 10.0 mi Calm Calm - N/A   Clear
1:35 AM 54.9 °F 49.6 °F 83% 30.11 in 10.0 mi East 3.5 mph - N/A   Clear
1:55 AM 55.2 °F 50.0 °F 83% 30.11 in 10.0 mi Calm Calm - N/A   Clear
2:15 AM 55.4 °F 50.7 °F 84% 30.11 in 10.0 mi Calm Calm - N/A   Clear
2:35 AM 55.8 °F 51.3 °F 85% 30.10 in 10.0 mi Calm Calm - N/A   Clear
2:55 AM 56.3 °F 51.3 °F 83% 30.10 in 10.0 mi Calm Calm - N/A   Clear
3:15 AM 56.1 °F 51.3 °F 84% 30.10 in 10.0 mi Calm Calm - N/A   Clear
3:35 AM 54.9 °F 51.1 °F 87% 30.11 in 10.0 mi Calm Calm - N/A   Clear
3:55 AM 53.8 °F 50.7 °F 89% 30.11 in 10.0 mi Calm Calm - N/A   Clear
4:15 AM 54.0 °F 51.1 °F 90% 30.11 in 10.0 mi Calm Calm - N/A   Clear
4:35 AM 52.9 °F 50.4 °F 91% 30.11 in 10.0 mi Calm Calm - N/A   Clear
4:55 AM 53.8 °F 52.0 °F 94% 30.12 in 7.0 mi Calm Calm - N/A   Clear
5:15 AM 53.4 °F 51.8 °F 94% 30.12 in 7.0 mi Calm Calm - N/A   Clear
5:35 AM 52.7 °F 51.1 °F 94% 30.12 in 10.0 mi Calm Calm - N/A   Clear
5:55 AM 50.7 °F 49.1 °F 94% 30.13 in 0.2 mi Calm Calm - N/A Fog Fog
6:15 AM 51.3 °F 49.8 °F 95% 30.14 in 1.5 mi Calm Calm - N/A   Scattered Clouds
6:35 AM 51.8 °F 50.0 °F 94% 30.14 in 5.0 mi Calm Calm - N/A   Clear
6:55 AM 52.7 °F 51.3 °F 95% 30.14 in 7.0 mi Calm Calm - N/A   Clear
7:15 AM 55.6 °F 53.1 °F 91% 30.14 in 10.0 mi Calm Calm - N/A   Clear
7:35 AM 58.6 °F 53.1 °F 82% 30.14 in 10.0 mi Calm Calm - N/A   Clear
7:55 AM 61.7 °F 54.0 °F 76% 30.15 in 10.0 mi SE 3.5 mph - N/A   Clear
8:15 AM 63.9 °F 54.0 °F 70% 30.15 in 10.0 mi Calm Calm - N/A   Clear
8:35 AM 66.2 °F 55.8 °F 69% 30.15 in 10.0 mi Calm Calm - N/A   Clear
8:55 AM 70.3 °F 55.6 °F 59% 30.15 in 10.0 mi South 5.8 mph - N/A   Clear
9:15 AM 72.0 °F 55.4 °F 56% 30.15 in 10.0 mi SSE 6.9 mph - N/A   Clear
9:35 AM 73.4 °F 55.4 °F 53% 30.15 in 10.0 mi South 6.9 mph - N/A   Clear
9:55 AM 75.7 °F 56.3 °F 51% 30.15 in 10.0 mi SSE 5.8 mph - N/A   Clear
10:15 AM 76.6 °F 55.9 °F 49% 30.16 in 10.0 mi South 5.8 mph - N/A   Clear
10:35 AM 77.9 °F 54.7 °F 45% 30.15 in 10.0 mi SSE 6.9 mph - N/A   Clear
10:55 AM 79.0 °F 54.1 °F 42% 30.15 in 10.0 mi South 8.1 mph - N/A   Clear
11:15 AM 79.7 °F 53.1 °F 40% 30.15 in 10.0 mi SSE 6.9 mph - N/A   Clear
11:35 AM 80.6 °F 51.1 °F 36% 30.14 in 10.0 mi SSE 8.1 mph - N/A   Clear
11:55 AM 81.0 °F 50.5 °F 35% 30.14 in 10.0 mi SSE 5.8 mph - N/A   Clear
12:15 PM 81.1 °F 50.7 °F 35% 30.14 in 10.0 mi WSW 3.5 mph - N/A   Clear
12:35 PM 80.8 °F 47.3 °F 31% 30.13 in 10.0 mi Calm Calm - N/A   Clear
12:55 PM 81.3 °F 47.8 °F 31% 30.12 in 10.0 mi Calm Calm - N/A   Clear
1:15 PM 82.0 °F 49.8 °F 32% 30.12 in 10.0 mi SE 9.2 mph - N/A   Clear
1:35 PM 81.7 °F 48.6 °F 31% 30.11 in 10.0 mi ESE 5.8 mph - N/A   Clear
1:55 PM 82.8 °F 49.3 °F 31% 30.11 in 10.0 mi SE 6.9 mph - N/A   Clear
2:15 PM 83.3 °F 50.2 °F 32% 30.10 in 10.0 mi South 3.5 mph - N/A   Clear
2:35 PM 84.2 °F 50.0 °F 30% 30.09 in 10.0 mi SSE 5.8 mph - N/A   Clear
2:55 PM 84.0 °F 50.9 °F 32% 30.09 in 10.0 mi SSE 9.2 mph - N/A   Clear
3:15 PM 84.2 °F 50.0 °F 30% 30.09 in 10.0 mi South 5.8 mph - N/A   Clear
3:35 PM 84.0 °F 50.4 °F 31% 30.08 in 10.0 mi SE 4.6 mph - N/A   Clear
3:55 PM 85.1 °F 51.3 °F 31% 30.09 in 10.0 mi SW 8.1 mph - N/A   Clear
4:15 PM 83.7 °F 50.0 °F 31% 30.08 in 10.0 mi SW 4.6 mph - N/A   Clear
4:35 PM 84.9 °F 49.8 °F 30% 30.06 in 10.0 mi SSE 9.2 mph - N/A   Clear
4:55 PM 84.2 °F 50.0 °F 30% 30.06 in 10.0 mi SSW 4.6 mph - N/A   Clear
5:15 PM 84.6 °F 50.4 °F 31% 30.06 in 10.0 mi South 8.1 mph - N/A   Clear
5:35 PM 84.0 °F 49.6 °F 30% 30.06 in 10.0 mi SSE 8.1 mph - N/A   Clear
5:55 PM 82.4 °F 49.6 °F 32% 30.06 in 10.0 mi SSE 6.9 mph - N/A   Clear
6:15 PM 81.7 °F 50.0 °F 33% 30.06 in 10.0 mi SSE 4.6 mph - N/A   Scattered Clouds
6:35 PM 81.1 °F 50.7 °F 35% 30.06 in 10.0 mi SSE 3.5 mph - N/A   Scattered Clouds
6:55 PM 79.7 °F 52.0 °F 38% 30.06 in 10.0 mi Calm Calm - N/A   Clear
7:15 PM 78.3 °F 53.2 °F 42% 30.06 in 10.0 mi SE 3.5 mph - N/A   Clear
7:35 PM 75.7 °F 53.6 °F 46% 30.06 in 10.0 mi SSE 4.6 mph - N/A   Clear
7:55 PM 75.0 °F 53.2 °F 47% 30.06 in 10.0 mi SE 3.5 mph - N/A   Clear
8:15 PM 73.2 °F 54.5 °F 52% 30.06 in 10.0 mi SE 4.6 mph - N/A   Clear
8:35 PM 70.3 °F 55.4 °F 59% 30.07 in 10.0 mi SE 3.5 mph - N/A   Clear
8:55 PM 71.4 °F 55.0 °F 56% 30.07 in 10.0 mi SE 3.5 mph - N/A   Clear
9:15 PM 66.2 °F 56.7 °F 71% 30.08 in 10.0 mi Calm Calm - N/A   Clear
9:35 PM 65.5 °F 56.3 °F 72% 30.08 in 10.0 mi SE 3.5 mph - N/A   Clear
9:55 PM 64.6 °F 55.6 °F 73% 30.08 in 10.0 mi SE 3.5 mph - N/A   Clear
10:15 PM 68.2 °F 55.0 °F 63% 30.08 in 10.0 mi SE 3.5 mph - N/A   Clear
10:35 PM 63.7 °F 55.4 °F 74% 30.08 in 10.0 mi SE 3.5 mph - N/A   Clear
10:55 PM 66.2 °F 55.4 °F 68% 30.08 in 10.0 mi SE 4.6 mph - N/A   Clear
11:15 PM 66.2 °F 55.4 °F 68% 30.08 in 10.0 mi Calm Calm - N/A   Clear
11:35 PM 62.1 °F 54.5 °F 76% 30.08 in 10.0 mi SE 3.5 mph - N/A   Clear
11:55 PM 62.4 °F 54.1 °F 74% 30.08 in 10.0 mi SE 3.5 mph - N/A   Clear